Terminal Aerodrome Forecast
Issued by NWS Duluth, MN

Home | Current Version | Previous Version | Text Only | Print | Product List | Glossary On
Versions: 1 2 3 4 5 6 7 8 9 10 11 12 13 14 15 16 17 18 19 20 21 22 23 24 25 26 27
000
FTUS43 KDLH 252000 AAC
TAFINL
TAF AMD
KINL 252052Z 2521/2618 25019G28KT P6SM BKN022 OVC030
     FM260000 27010G16KT P6SM OVC015
     FM261000 28006KT P6SM OVC015=

USA.gov is the U.S. government's official web portal to all federal, state and local government web resources and services.